User: anonymous   Login
Location: ??????
(55.6500°N, 37.8000°E)
Time: 16:20:01
(UTC+00:00)
Language:

YAOGAN 11 - Orbit

View from above orbital plane
View from above orbital plane
View from above satellite
View from above satellite

Ground track
Ground track

The orbit data is extracted from the following two-line orbital elements,

1 37165U 10047A   24176.44311194  .00001261  00000-0  17619-3 0  9998
2 37165  98.4348 355.5599 0037392  39.6943 320.6993 14.79103893741121
Epoch (UTC): 24 June 2024 10:38:04
Eccentricity: 0.0037392
inclination: 98.4348°
perigee height: 606 km
apogee height: 658 km
right ascension of ascending node: 355.5599°
argument of perigee: 39.6943°
revolutions per day: 14.79103893
mean anomaly at epoch: 320.6993°
orbit number at epoch: 74112

The dashed part of the orbit path shows where the satellite is in the earth's shadow,  

DLR